Tracking 27422 objects as of 30-May-2023
HD Live streaming from Space Station
objects crossing your sky now

CP5

Track CP5 now!
10-day predictions
CP5 is classified as:


NORAD ID: 38763
Int'l Code: 2012-048F
Perigee: 478.7 km
Apogee: 641.9 km
Inclination: 64.7 °
Period: 95.7 minutes
Semi major axis: 6931 km
RCS: Unknown
Launch date: September 13, 2012
Source: United States (US)
Launch site: AIR FORCE WESTERN TEST RANGE (AFWTR)

Uplink (MHz):
Downlink (MHz): 437.405
Beacon (MHz): 437.405
Mode: 1200bps AFSK CW
Call sign: CP5
Status: Inactive

Your satellite tracking list
Your tracking list is empty




NASA's NSSDC Master Catalog

Two Line Element Set (TLE):
1 38763U 12048F   23149.29297956 +.00007211 +00000+0 +45180-3 0    15
2 38763  64.6620  67.6092 0117770 160.4021 200.1682 15.04466742518709
Source of the keplerian elements: Caltech